Date,TemperatureHighF,TemperatureAvgF,TemperatureLowF,DewpointHighF,DewpointAvgF,DewpointLowF,HumidityHigh,HumidityAvg,HumidityLow,PressureMaxIn,PressureMinIn,WindSpeedMaxMPH,WindSpeedAvgMPH,GustSpeedMaxMPH,PrecipitationSumIn
2013-1-1,49.0,45.4,41.0,49.0,37.3,22.0,100,76,39,29.67,29.51,125,9,183,0.20
2013-1-2,48.0,43.5,37.0,48.0,39.7,32.0,100,88,58,29.75,29.50,8,4,17,0.40
2013-1-3,45.0,38.3,29.0,39.0,34.9,29.0,99,89,64,29.82,29.71,4,2,9,0.01
2013-1-4,51.0,38.1,27.0,29.0,19.8,11.0,99,54,22,29.88,29.76,9,5,21,0.00
2013-1-5,52.0,38.4,30.0,27.0,19.3,16.0,66,48,24,29.95,29.84,7,3,16,0.00
2013-1-6,54.0,42.1,34.0,36.0,31.9,23.0,93,69,44,29.84,29.63,11,2,61,0.00
2013-1-7,55.0,40.1,30.0,31.0,27.2,25.0,89,64,33,29.99,29.74,7,3,17,0.00
2013-1-8,58.0,40.0,28.0,39.0,32.1,26.0,97,76,38,30.04,29.94,4,2,71,0.00
2013-1-9,70.0,48.5,33.0,51.0,41.5,32.0,98,80,49,30.02,29.93,69,6,70,0.00
2013-1-10,66.0,55.3,47.0,50.0,40.3,32.0,96,60,31,30.10,29.98,70,8,71,0.00
2013-1-11,48.0,44.9,39.0,48.0,41.0,30.0,100,88,53,30.01,29.73,4,3,11,0.10
2013-1-12,75.0,57.9,46.0,62.0,55.2,46.0,100,92,61,29.74,29.68,4,2,10,0.01
2013-1-13,75.0,61.5,52.0,61.0,55.9,52.0,100,84,52,29.72,29.63,44,5,93,0.01
2013-1-14,66.0,62.4,59.0,65.0,59.4,55.0,100,91,76,29.73,29.65,7,3,45,0.22
2013-1-15,62.0,44.2,42.0,62.0,44.2,42.0,100,100,98,29.80,29.65,10,5,23,0.09
2013-1-16,49.0,44.4,41.0,49.0,44.4,41.0,100,100,100,29.65,29.55,5,3,14,0.20
2013-1-17,50.0,45.1,32.0,50.0,45.0,32.0,100,100,98,29.69,29.48,12,6,36,1.39
2013-1-18,47.0,35.9,27.0,33.0,28.3,22.0,100,78,39,30.08,29.69,9,4,22,1.09
2013-1-19,57.0,37.0,25.0,28.0,25.5,20.0,100,70,25,30.06,29.73,6,3,15,0.02
2013-1-20,64.0,47.4,38.0,29.0,27.3,23.0,67,48,25,29.73,29.57,91,8,162,0.01
2013-1-21,61.0,45.1,28.0,38.0,23.7,9.0,99,51,21,29.66,29.44,9,5,185,0.00
2013-1-22,43.0,33.1,24.0,10.0,-2.7,-14.0,37,22,10,29.83,29.52,9,5,22,0.00
2013-1-23,44.0,28.1,16.0,11.0,4.7,-4.0,65,39,19,29.93,29.63,9,3,20,0.00
2013-1-24,38.0,30.6,22.0,21.0,6.9,-7.0,72,40,18,30.06,29.52,12,5,35,0.00
2013-1-25,27.0,23.4,18.0,26.0,12.0,-4.0,94,64,31,30.08,29.68,5,3,15,0.00
2013-1-26,40.0,30.5,26.0,32.0,27.6,23.0,100,90,63,29.95,29.64,6,2,14,0.18
2013-1-27,43.0,31.5,21.0,27.0,23.0,20.0,100,73,42,30.15,29.95,7,2,12,0.01
2013-1-28,51.0,41.7,31.0,47.0,33.0,25.0,94,73,50,30.06,29.80,42,5,97,0.02
2013-1-29,74.0,59.0,48.0,56.0,50.8,47.0,99,77,44,29.81,29.64,42,6,149,0.02
2013-1-30,72.0,66.5,61.0,64.0,60.1,55.0,97,81,67,29.64,29.02,15,11,38,0.31
2013-1-31,65.0,44.1,32.0,64.0,20.1,12.0,97,41,24,29.57,29.03,41,16,46,0.50
2013-2-1,40.0,34.0,25.0,23.0,7.9,-6.0,60,36,17,29.94,29.44,13,7,37,0.01
2013-2-2,44.0,32.3,16.0,25.0,6.6,1.0,67,36,19,29.95,29.61,8,4,22,0.00
2013-2-3,50.0,40.5,33.0,33.0,25.3,19.0,97,58,34,29.61,29.43,41,-40,142,0.00
2013-2-4,51.0,37.1,25.0,22.0,17.9,13.0,81,48,25,29.71,29.55,31,8,32,0.00
2013-2-5,61.0,45.5,36.0,31.0,27.5,21.0,71,51,29,29.58,29.46,63,8,111,0.00
2013-2-6,62.0,45.1,32.0,33.0,25.8,17.0,92,54,17,29.81,29.54,9,4,56,0.00
2013-2-7,46.0,39.6,34.0,42.0,31.8,20.0,99,75,44,29.89,29.60,8,5,18,0.45
2013-2-8,56.0,44.5,38.0,43.0,37.5,23.0,99,79,48,29.61,29.40,10,7,58,1.01
2013-2-9,55.0,37.9,27.0,26.0,20.2,12.0,94,54,18,29.92,29.61,53,10,94,0.01
2013-2-10,54.0,39.7,25.0,35.0,18.9,14.0,86,48,22,30.05,29.80,8,4,53,0.01
2013-2-11,62.0,54.2,40.0,60.0,52.5,35.0,100,94,82,29.80,29.49,10,6,24,0.05
2013-2-12,62.0,52.4,45.0,53.0,31.7,22.0,94,50,22,29.66,29.52,11,4,80,0.02
2013-2-13,48.0,44.2,41.0,46.0,41.4,30.0,100,91,52,29.53,29.22,23,4,41,0.31
2013-2-14,52.0,40.9,31.0,33.0,29.8,24.0,99,68,35,29.63,29.39,105,-28,107,0.01
2013-2-15,63.0,45.9,29.0,37.0,29.3,22.0,100,61,21,29.65,29.50,8,3,46,0.00
2013-2-16,47.0,35.6,29.0,34.0,30.8,23.0,99,84,54,29.54,29.41,8,4,66,0.19
2013-2-17,37.0,28.8,23.0,23.0,11.3,0.0,80,52,21,29.82,29.47,12,7,66,0.03
2013-2-18,53.0,34.5,16.0,20.0,13.5,11.0,84,49,19,29.96,29.82,7,3,20,0.12
2013-2-19,49.0,40.4,30.0,48.0,35.0,19.0,100,82,45,29.82,29.44,12,5,77,0.23
2013-2-20,53.0,38.1,27.0,38.0,18.7,6.0,100,51,15,29.70,29.53,66,7,81,0.01
2013-2-21,58.0,40.3,26.0,15.0,11.2,7.0,59,33,15,29.79,29.69,109,14,111,0.01
2013-2-22,42.0,35.1,32.0,35.0,29.4,15.0,100,83,34,29.91,29.73,38,6,41,0.30
2013-2-23,43.0,38.5,34.0,43.0,38.2,34.0,100,99,97,29.73,29.40,6,3,13,0.64
2013-2-24,63.0,48.9,40.0,43.0,34.8,20.0,100,65,20,29.60,29.37,8,4,33,0.05
2013-2-25,42.0,36.8,32.0,23.0,18.8,16.0,60,48,36,29.79,29.60,8,4,20,0.00
2013-2-26,55.0,41.5,33.0,55.0,36.2,19.0,100,83,52,29.71,29.14,10,6,24,0.78
2013-2-27,61.0,48.5,41.0,45.0,37.5,31.0,100,70,35,29.36,29.20,30,6,51,0.09
2013-2-28,49.0,41.3,34.0,37.0,28.1,20.0,100,63,34,29.42,29.28,105,17,105,0.00
2013-3-1,48.0,38.0,27.0,28.0,24.3,20.0,95,61,37,29.49,29.41,43,5,105,0.00
2013-3-2,49.0,35.9,26.0,28.0,21.1,13.0,94,59,33,29.49,29.38,8,4,19,0.00
2013-3-3,47.0,35.0,25.0,18.0,14.4,11.0,74,44,28,29.54,29.42,10,5,22,0.00
2013-3-4,52.0,35.2,21.0,20.0,11.3,5.0,77,41,15,29.67,29.54,8,4,56,0.00
2013-3-5,45.0,39.7,32.0,44.0,32.3,20.0,100,78,42,29.64,29.17,41,4,63,0.21
2013-3-6,47.0,41.2,35.0,42.0,29.5,22.0,100,66,43,29.60,29.10,14,9,38,0.13
2013-3-7,51.0,41.0,34.0,27.0,24.1,19.0,71,52,36,29.80,29.60,10,6,42,0.01
2013-3-8,56.0,42.5,31.0,24.0,20.2,16.0,68,44,23,29.85,29.73,11,6,42,0.00
2013-3-9,66.0,47.1,34.0,26.0,23.0,20.0,65,42,18,29.91,29.81,41,6,41,0.00
2013-3-10,68.0,50.4,32.0,35.0,23.0,15.0,81,42,15,29.89,29.78,41,6,43,0.00
2013-3-11,68.0,53.0,35.0,51.0,35.7,16.0,74,54,27,29.81,29.52,19,6,64,0.00
2013-3-12,70.0,60.5,50.0,62.0,50.6,27.0,100,74,32,29.53,29.34,33,8,45,0.54
2013-3-13,56.0,46.2,32.0,33.0,22.2,14.0,90,42,22,29.69,29.53,12,7,34,0.01
2013-3-14,55.0,40.0,31.0,15.0,11.2,8.0,44,32,16,29.80,29.68,11,7,31,0.00
2013-3-15,63.0,45.0,26.0,30.0,21.0,11.0,79,42,24,29.74,29.48,45,9,47,0.00
2013-3-16,79.0,61.1,46.0,51.0,38.9,29.0,71,46,28,29.48,29.25,20,7,32,0.00
2013-3-17,61.0,50.4,39.0,53.0,43.3,34.0,100,77,60,29.74,29.41,12,6,60,0.00
2013-3-18,41.0,38.5,36.0,41.0,38.3,36.0,100,99,94,29.75,29.45,7,5,30,0.35
2013-3-19,67.0,50.6,38.0,44.0,28.9,0.0,100,59,12,29.60,29.39,11,6,31,0.33
2013-3-20,58.0,45.9,34.0,19.0,7.2,0.0,53,22,12,29.68,29.38,10,4,53,0.00
2013-3-21,44.0,37.9,31.0,36.0,15.2,4.0,96,43,23,29.53,29.31,10,6,45,0.00
2013-3-22,53.0,37.2,22.0,16.0,8.5,5.0,56,33,15,29.64,29.53,41,6,41,0.00
2013-3-23,59.0,44.3,33.0,30.0,21.7,15.0,65,43,24,29.62,29.49,41,7,45,0.00
2013-3-24,40.0,36.7,32.0,38.0,32.9,26.0,97,87,65,29.52,29.16,34,7,85,0.86
2013-3-25,48.0,39.6,33.0,36.0,27.5,17.0,100,68,32,29.38,29.14,11,6,85,0.02
2013-3-26,49.0,41.1,31.0,25.0,21.5,17.0,73,46,36,29.67,29.38,9,6,51,0.01
2013-3-27,52.0,41.2,32.0,25.0,20.1,13.0,67,46,24,29.76,29.67,11,7,29,0.00
2013-3-28,57.0,50.8,38.0,20.0,18.2,17.0,44,28,22,29.85,29.72,10,6,24,0.00
2013-3-29,60.0,44.5,28.0,25.0,21.6,16.0,83,46,18,29.89,29.75,7,4,19,0.00
2013-3-30,68.0,53.5,37.0,39.0,29.0,20.0,72,43,20,29.81,29.66,6,3,47,0.00
2013-3-31,69.0,55.8,46.0,54.0,47.3,-99.9,100,79,54,29.67,29.39,36,7,66,0.45
2013-4-1,71.0,59.3,52.0,55.0,44.3,32.0,100,66,25,29.52,29.40,13,4,95,0.26
2013-4-2,62.0,48.0,33.0,35.0,23.9,14.0,90,44,16,29.73,29.52,10,5,57,0.01
2013-4-3,60.0,48.2,34.0,27.0,15.7,10.0,56,29,14,29.86,29.70,8,4,38,0.00
2013-4-4,48.0,41.1,37.0,38.0,26.6,13.0,98,61,30,29.93,29.53,10,6,21,0.84
2013-4-5,68.0,49.1,37.0,45.0,39.5,35.0,100,75,31,29.59,29.45,8,5,43,0.65
2013-4-6,68.0,53.4,43.0,38.0,26.5,17.0,81,39,18,29.84,29.59,41,6,55,0.02
2013-4-7,74.0,56.0,34.0,39.0,34.6,29.0,92,48,26,29.85,29.69,10,5,60,0.00
2013-4-8,81.0,65.4,51.0,54.0,48.7,38.0,100,59,32,29.75,29.63,34,7,62,0.00
2013-4-9,87.0,71.0,55.0,57.0,53.5,49.0,100,59,29,29.76,29.64,26,6,42,0.00
2013-4-10,89.0,74.3,60.0,60.0,55.1,52.0,85,55,30,29.68,29.53,13,6,65,0.00
2013-4-11,82.0,72.2,61.0,64.0,57.3,54.0,96,62,42,29.57,29.39,18,6,56,0.00
2013-4-12,84.0,72.1,62.0,68.0,60.8,44.0,100,71,38,29.39,29.19,21,9,38,0.39
2013-4-13,77.0,63.4,49.0,44.0,36.5,31.0,73,39,21,29.58,29.33,27,5,48,0.01
2013-4-14,81.0,63.4,41.0,47.0,39.4,31.0,97,50,17,29.68,29.58,33,4,62,0.00
2013-4-15,73.0,63.2,56.0,58.0,55.0,45.0,100,77,45,29.79,29.62,8,4,62,0.06
2013-4-16,79.0,66.5,59.0,60.0,57.4,53.0,100,76,42,29.88,29.78,21,4,55,0.01
2013-4-17,83.0,68.2,54.0,65.0,59.6,54.0,100,78,43,29.81,29.69,6,3,13,0.00
2013-4-18,81.0,70.2,58.0,64.0,58.6,55.0,100,69,44,29.78,29.63,10,5,64,0.00
2013-4-19,80.0,69.8,64.0,68.0,64.1,60.0,100,84,57,29.63,29.30,12,8,39,1.15
2013-4-20,67.0,55.0,43.0,64.0,37.0,27.0,100,56,24,29.84,29.37,10,5,27,1.12
2013-4-21,64.0,50.7,38.0,43.0,35.2,31.0,100,59,35,30.06,29.84,10,6,50,0.00
2013-4-22,64.0,49.5,35.0,41.0,34.1,30.0,90,59,33,30.05,29.85,10,6,21,0.00
2013-4-23,70.0,55.0,45.0,50.0,45.1,41.0,97,72,41,29.87,29.70,36,6,54,0.01
2013-4-24,76.0,61.3,45.0,55.0,51.0,45.0,100,73,45,29.72,29.56,12,5,30,0.01
2013-4-25,73.0,60.2,46.0,56.0,42.0,34.0,97,55,26,29.84,29.59,8,4,21,0.00
2013-4-26,73.0,56.6,41.0,46.0,37.4,30.0,100,58,21,30.00,29.84,8,3,18,0.00
2013-4-27,75.0,60.8,49.0,54.0,44.1,37.0,89,57,28,29.95,29.84,5,2,15,0.00
2013-4-28,59.0,55.3,52.0,56.0,50.9,-99.9,100,91,69,29.85,29.69,6,3,12,0.53
2013-4-29,76.0,62.3,54.0,63.0,58.3,54.0,100,89,54,29.69,29.55,20,4,94,0.73
2013-4-30,67.0,60.2,55.0,59.0,56.9,53.0,100,90,70,29.76,29.59,6,4,14,0.01
2013-5-1,63.0,57.8,55.0,58.0,56.5,55.0,100,96,85,29.90,29.75,10,6,23,0.00
2013-5-2,62.0,57.0,53.0,58.0,55.4,52.0,100,95,81,29.91,29.85,7,5,17,0.00
2013-5-3,68.0,57.1,47.0,53.0,48.2,37.0,100,75,41,29.85,29.75,9,6,40,0.00
2013-5-4,63.0,54.4,48.0,51.0,46.5,42.0,90,76,58,29.80,29.66,12,8,25,0.00
2013-5-5,58.0,53.3,48.0,56.0,49.7,44.0,98,88,76,29.68,29.57,10,8,23,0.02
2013-5-6,68.0,59.0,54.0,64.0,58.3,54.0,100,98,75,29.58,29.43,12,6,63,0.82
2013-5-7,71.0,58.7,49.0,60.0,51.6,43.0,100,82,37,29.52,29.44,8,3,18,0.01
2013-5-8,74.0,59.9,50.0,60.0,54.7,50.0,100,85,57,29.59,29.51,8,3,24,0.25
2013-5-9,83.0,65.5,52.0,59.0,55.3,52.0,100,75,38,29.64,29.57,8,3,19,0.25
2013-5-10,85.0,69.1,55.0,62.0,54.1,-99.9,100,68,35,29.65,29.54,10,4,42,0.01
2013-5-11,81.0,71.4,64.0,68.0,61.2,57.0,100,72,47,29.54,29.38,11,6,32,0.39
2013-5-12,72.0,63.3,52.0,66.0,46.2,-99.9,100,62,28,29.60,29.39,10,6,24,0.15
2013-5-13,66.0,54.0,40.0,43.0,34.8,28.0,91,53,27,29.75,29.60,71,8,71,0.01
2013-5-14,72.0,54.9,35.0,43.0,37.0,32.0,100,58,27,29.83,29.66,7,3,19,0.01
2013-5-15,88.0,67.7,50.0,61.0,51.1,41.0,77,57,39,29.66,29.49,9,5,75,0.00
2013-5-16,86.0,66.1,61.0,63.0,38.7,-99.9,100,65,37,29.58,29.49,32,5,43,0.00
2013-5-17,88.0,72.9,60.0,65.0,53.0,-99.9,100,67,34,29.67,29.57,36,5,62,0.00
2013-5-18,77.0,68.4,61.0,69.0,64.2,61.0,100,87,65,29.74,29.66,5,3,42,0.68
2013-5-19,80.0,68.0,62.0,72.0,66.1,62.0,100,95,65,29.74,29.65,8,3,21,1.98
2013-5-20,77.0,69.0,66.0,71.0,68.0,66.0,100,97,77,29.70,29.62,46,5,49,1.86
2013-5-21,87.0,74.0,68.0,73.0,69.7,68.0,100,88,62,29.64,29.55,24,5,68,0.01
2013-5-22,84.0,74.0,67.0,71.0,68.4,65.0,100,85,54,29.63,29.51,9,6,66,0.01
2013-5-23,82.0,72.3,65.0,70.0,67.6,65.0,100,87,61,29.55,29.42,8,3,87,0.26
2013-5-24,70.0,63.8,48.0,67.0,53.0,37.0,100,72,35,29.77,29.41,13,6,35,0.25
2013-5-25,76.0,57.3,42.0,52.0,39.9,32.0,98,60,26,29.85,29.72,9,4,23,0.00
2013-5-26,76.0,59.6,46.0,54.0,44.6,40.0,100,64,28,29.86,29.76,6,3,16,0.00
2013-5-27,82.0,64.7,47.0,55.0,51.2,47.0,100,68,34,29.86,29.74,6,3,17,0.00
2013-5-28,85.0,71.5,58.0,65.0,61.6,54.0,100,74,49,29.84,29.74,9,4,19,0.00
2013-5-29,86.0,73.3,60.0,66.0,62.8,60.0,100,73,47,29.83,29.76,8,4,18,0.00
2013-5-30,87.0,73.5,60.0,68.0,64.3,60.0,100,77,44,29.86,29.77,8,3,15,0.00
2013-5-31,88.0,74.6,64.0,70.0,65.8,62.0,100,78,46,29.82,29.70,9,4,64,0.00
2013-6-1,88.0,76.7,65.0,71.0,66.1,62.0,100,73,44,29.73,29.62,19,6,93,0.00
2013-6-2,87.0,76.5,68.0,73.0,65.7,-99.9,100,75,51,29.64,29.51,14,7,62,0.08
2013-6-3,85.0,72.6,65.0,74.0,69.2,65.0,100,91,59,29.55,29.43,8,4,21,0.54
2013-6-4,80.0,69.1,64.0,68.0,64.3,62.0,100,86,58,29.69,29.54,13,4,72,0.08
2013-6-5,82.0,70.2,61.0,66.0,61.4,56.0,100,77,44,29.73,29.61,79,7,79,0.00
2013-6-6,74.0,70.0,63.0,74.0,66.8,56.0,100,91,60,29.63,29.42,13,5,50,0.19
2013-6-7,71.0,69.3,68.0,71.0,69.3,68.0,100,100,99,29.45,29.15,9,4,43,3.11
2013-6-8,86.0,72.5,66.0,70.0,67.1,65.0,100,86,53,29.69,29.41,7,3,24,0.15
2013-6-9,88.0,75.4,63.0,73.0,68.5,63.0,100,82,53,29.75,29.66,8,3,17,0.01
2013-6-10,83.0,74.1,70.0,78.0,73.2,70.0,100,97,81,29.70,29.49,9,6,52,0.50
2013-6-11,86.0,75.8,68.0,72.0,67.9,63.0,100,80,49,29.55,29.50,9,5,43,0.02
2013-6-12,91.0,77.3,63.0,77.0,69.7,63.0,100,80,54,29.57,29.46,7,3,49,0.00
2013-6-13,93.0,78.4,66.0,77.0,71.5,62.0,100,83,45,29.46,29.21,16,5,55,0.27
2013-6-14,80.0,70.3,58.0,67.0,60.2,56.0,100,74,48,29.60,29.32,27,6,56,0.27
2013-6-15,86.0,71.0,56.0,66.0,60.6,56.0,100,74,43,29.71,29.60,6,3,14,0.00
2013-6-16,87.0,74.7,64.0,70.0,65.0,58.0,100,73,54,29.71,29.60,9,6,22,0.00
2013-6-17,86.0,75.6,68.0,74.0,69.6,66.0,98,82,60,29.63,29.53,6,4,15,0.00
2013-6-18,83.0,72.8,68.0,76.0,71.2,68.0,100,95,74,29.57,29.38,11,5,24,0.59
2013-6-19,82.0,72.0,62.0,70.0,66.4,62.0,100,84,61,29.71,29.47,7,4,33,0.25
2013-6-20,84.0,70.8,62.0,66.0,62.5,59.0,100,78,49,29.83,29.71,6,4,15,0.00
2013-6-22,82.0,74.6,67.0,73.0,70.8,67.0,100,88,71,29.80,29.72,6,4,17,0.22
2013-6-23,87.0,75.1,64.0,75.0,70.5,64.0,100,87,63,29.81,29.72,6,2,12,0.22
2013-6-24,88.0,77.6,68.0,78.0,73.4,68.0,100,88,64,29.80,29.69,10,4,21,0.00
2013-6-25,91.0,76.7,68.0,76.0,71.7,68.0,100,87,53,29.72,29.61,7,4,20,0.00
2013-6-26,89.0,76.2,67.0,75.0,71.3,67.0,100,87,57,29.64,29.49,40,6,61,0.96
2013-6-27,88.0,76.6,66.0,78.0,72.1,66.0,100,88,63,29.54,29.32,10,5,26,0.96
2013-6-28,91.0,77.6,70.0,76.0,72.4,67.0,100,86,59,29.35,29.19,14,5,36,0.59
2013-6-29,86.0,75.3,68.0,75.0,71.8,68.0,100,90,66,29.32,29.21,6,4,32,1.44
2013-6-30,86.0,74.0,68.0,77.0,71.9,68.0,100,94,67,29.45,29.32,7,3,20,1.55
2013-7-1,82.0,74.2,68.0,75.0,71.6,68.0,100,92,75,29.58,29.44,7,4,18,1.11
2013-7-2,76.0,73.1,71.0,76.0,73.1,71.0,100,100,99,29.77,29.58,7,5,17,0.39
2013-7-3,86.0,76.2,72.0,77.0,74.5,72.0,100,95,72,29.83,29.75,9,4,37,0.57
2013-7-4,87.0,78.9,71.0,76.0,73.2,68.0,100,84,58,29.87,29.77,8,5,18,0.04
2013-7-5,91.0,79.0,71.0,76.0,73.4,71.0,100,85,56,29.87,29.76,8,4,17,0.01
2013-7-6,88.0,78.5,72.0,76.0,73.5,71.0,100,86,63,29.85,29.72,6,3,49,0.02
2013-7-7,88.0,77.1,67.0,79.0,73.4,67.0,100,89,69,29.78,29.67,8,4,25,0.36
2013-7-8,90.0,76.6,70.0,79.0,73.1,70.0,100,91,57,29.77,29.69,5,2,11,0.33
2013-7-9,87.0,77.1,71.0,80.0,74.9,70.0,100,94,70,29.75,29.67,8,4,16,0.03
2013-7-10,88.0,77.0,71.0,77.0,69.8,-99.9,100,85,66,29.71,29.55,44,10,55,0.79
2013-7-11,79.0,74.5,71.0,78.0,74.0,71.0,100,99,90,29.58,29.48,7,3,17,1.37
2013-7-12,74.0,71.4,69.0,73.0,71.1,69.0,100,99,90,29.61,29.47,8,4,19,0.08
2013-7-13,78.0,72.9,68.0,78.0,72.8,68.0,100,100,98,29.76,29.61,44,5,68,0.15
2013-7-14,88.0,77.2,70.0,78.0,72.8,70.0,100,88,60,29.89,29.76,8,4,21,0.35
2013-7-15,92.0,78.2,68.0,77.0,71.6,68.0,100,83,48,29.92,29.85,4,2,16,0.35
2013-7-16,97.0,88.3,71.0,79.0,75.4,71.0,100,69,48,29.86,29.78,3,2,10,0.00
2013-7-17,94.0,83.1,74.0,81.0,76.5,74.0,100,83,55,29.82,29.71,6,3,11,0.00
2013-7-18,96.0,84.8,71.0,80.0,76.0,71.0,100,78,52,29.74,29.64,4,2,12,0.00
2013-7-19,91.0,81.4,73.0,79.0,75.2,72.0,100,84,62,29.69,29.59,10,4,19,0.00
2013-7-20,88.0,77.7,73.0,79.0,73.5,-99.9,100,90,68,29.63,29.52,8,5,70,0.00
2013-7-21,88.0,77.8,72.0,79.0,75.0,72.0,100,92,69,29.58,29.51,7,4,16,0.04
2013-7-22,89.0,77.6,70.0,79.0,73.8,70.0,100,89,66,29.55,29.43,7,3,15,0.04
2013-7-23,91.0,79.8,72.0,77.0,73.7,72.0,100,85,56,29.45,29.33,7,4,18,0.00
2013-7-24,94.0,80.8,68.0,74.0,71.5,68.0,100,77,46,29.44,29.33,5,3,53,0.00
2013-7-25,80.0,72.9,65.0,74.0,68.7,65.0,100,87,67,29.63,29.43,10,5,26,0.44
2013-7-26,86.0,73.2,61.0,69.0,64.7,61.0,100,78,49,29.70,29.62,30,3,59,0.00
2013-7-27,87.0,72.0,64.0,74.0,68.4,64.0,100,90,57,29.65,29.54,5,2,22,1.23
2013-7-28,87.0,75.8,67.0,75.0,70.5,67.0,100,86,57,29.58,29.52,6,3,14,0.51
2013-7-29,86.0,74.7,66.0,73.0,67.5,62.0,100,82,45,29.75,29.58,7,4,19,0.27
2013-7-30,90.0,74.2,60.0,74.0,65.8,60.0,100,80,41,29.81,29.73,5,2,11,0.01
2013-7-31,85.0,75.8,68.0,76.0,71.6,68.0,100,88,63,29.75,29.60,14,3,48,0.00
2013-8-1,84.0,75.1,69.0,76.0,72.1,69.0,100,92,70,29.60,29.47,7,3,33,0.58
2013-8-2,91.0,76.8,65.0,76.0,69.3,65.0,100,81,49,29.62,29.51,6,3,15,2.05
2013-8-3,90.0,76.6,68.0,78.0,72.9,68.0,100,90,63,29.61,29.51,9,4,18,0.01
2013-8-4,86.0,75.0,66.0,74.0,68.4,63.0,100,83,49,29.62,29.49,8,3,24,0.00
2013-8-5,85.0,72.6,62.0,72.0,65.4,62.0,100,81,50,29.69,29.60,6,2,16,0.00
2013-8-6,82.0,73.3,65.0,71.0,67.9,65.0,100,85,64,29.66,29.60,8,3,19,0.31
2013-8-7,85.0,75.2,65.0,74.0,70.2,65.0,100,86,60,29.69,29.62,7,3,50,0.01
2013-8-8,88.0,77.6,68.0,76.0,73.0,68.0,100,88,62,29.67,29.60,5,2,13,0.00
2013-8-9,91.0,79.6,71.0,78.0,74.7,71.0,100,86,65,29.65,29.59,9,4,21,0.00
2013-8-10,94.0,79.3,72.0,79.0,75.3,72.0,100,90,59,29.69,29.62,7,4,30,0.42
2013-8-11,96.0,79.8,70.0,77.0,73.7,70.0,100,85,51,29.70,29.62,9,3,42,0.08
2013-8-12,93.0,79.8,70.0,79.0,73.4,69.0,100,84,46,29.65,29.54,5,2,92,0.08
2013-8-13,90.0,76.2,70.0,78.0,72.1,-99.9,100,91,63,29.56,29.39,8,4,30,0.65
2013-8-14,78.0,70.1,60.0,72.0,65.1,-99.9,100,88,65,29.67,29.42,7,3,57,0.01
2013-8-15,79.0,61.6,57.0,64.0,53.5,-99.9,100,84,47,29.75,29.67,28,4,49,0.00
2013-8-16,71.0,62.4,57.0,64.0,56.3,-99.9,100,87,71,29.77,29.69,4,3,11,0.00
2013-8-17,71.0,65.1,59.0,71.0,65.1,59.0,100,100,97,29.77,29.71,25,5,50,0.36
2013-8-18,79.0,70.4,66.0,71.0,66.6,-99.9,100,91,71,29.79,29.71,28,5,64,0.28
2013-8-19,76.0,66.3,64.0,75.0,62.9,-99.9,100,98,89,29.79,29.70,11,3,64,0.36
2013-8-20,86.0,72.8,63.0,76.0,69.2,63.0,100,90,62,29.78,29.71,3,2,8,0.02
2013-8-21,88.0,74.4,69.0,79.0,72.9,69.0,100,96,65,29.82,29.70,7,2,18,0.51
2013-8-22,91.0,77.4,68.0,76.0,72.1,68.0,100,86,53,29.76,29.60,6,3,14,0.10
2013-8-23,86.0,76.2,68.0,77.0,71.6,68.0,100,87,63,29.67,29.53,7,4,78,0.00
2013-8-24,84.0,71.7,62.0,68.0,63.6,59.0,100,79,45,29.88,29.67,8,5,43,0.00
2013-8-25,81.0,67.3,57.0,65.0,58.9,-99.9,100,80,47,29.98,29.88,7,3,16,0.00
2013-8-26,86.0,67.8,52.0,65.0,59.3,52.0,100,79,41,29.91,29.71,4,2,11,0.00
2013-8-27,92.0,71.7,60.0,73.0,65.3,60.0,100,83,49,29.72,29.58,5,3,14,0.00
2013-8-28,83.0,79.1,75.0,80.0,77.0,73.0,100,94,73,29.58,29.48,4,2,9,0.00
2013-8-29,87.0,78.6,70.0,76.0,73.7,70.0,100,86,63,29.61,29.45,8,4,18,0.00
2013-8-30,89.0,75.2,65.0,73.0,67.9,62.0,100,82,41,29.66,29.54,4,2,10,0.00
2013-8-31,88.0,75.6,64.0,76.0,71.0,64.0,100,88,62,29.57,29.47,7,3,16,0.00
2013-9-1,91.0,75.5,69.0,78.0,70.5,-99.9,100,88,58,29.50,29.39,10,4,41,2.39
2013-9-2,90.0,76.7,68.0,76.0,72.0,68.0,100,87,62,29.49,29.41,6,3,12,2.31
2013-9-3,89.0,78.1,69.0,77.0,73.2,69.0,100,87,58,29.53,29.40,5,3,14,0.00
2013-9-4,88.0,74.5,64.0,73.0,68.5,64.0,100,84,56,29.68,29.53,7,4,15,0.00
2013-9-5,88.0,73.3,62.0,69.0,64.0,58.0,100,78,37,29.70,29.63,6,3,12,0.00
2013-9-6,82.0,71.3,62.0,66.0,61.9,57.0,100,75,50,29.77,29.67,6,4,18,0.00
2013-9-7,84.0,69.2,56.0,69.0,62.2,56.0,100,82,53,29.72,29.58,5,2,14,0.00
2013-9-8,89.0,72.9,62.0,72.0,62.7,-99.9,100,77,42,29.58,29.51,65,7,82,0.00
2013-9-9,88.0,74.9,62.0,73.0,68.0,62.0,100,83,50,29.74,29.58,5,2,48,0.00
2013-9-10,91.0,77.7,66.0,74.0,69.9,66.0,100,81,46,29.83,29.74,22,2,42,0.00
2013-9-11,91.0,76.3,64.0,73.0,69.5,64.0,100,82,50,29.80,29.68,22,3,81,0.00
2013-9-12,91.0,76.5,68.0,75.0,71.2,68.0,100,86,57,29.68,29.41,18,4,45,0.00
2013-9-13,83.0,73.6,63.0,72.0,64.3,52.0,100,76,45,29.49,29.36,26,6,78,0.00
2013-9-14,77.0,64.9,55.0,61.0,53.0,47.0,100,68,45,29.72,29.49,8,4,31,0.00
2013-9-15,84.0,61.4,48.0,65.0,54.4,-99.9,100,85,43,29.81,29.71,3,2,10,0.00
2013-9-16,85.0,72.0,61.0,72.0,64.2,60.0,100,80,45,29.78,29.64,7,4,19,0.00
2013-9-17,76.0,66.1,56.0,61.0,54.6,50.0,95,69,43,29.91,29.78,9,5,20,0.00
2013-9-18,57.0,51.3,47.0,55.0,50.8,47.0,100,98,88,29.88,29.78,4,2,8,0.00
2013-9-19,78.0,62.8,50.0,67.0,58.2,50.0,100,87,52,29.78,29.67,4,2,10,0.00
2013-9-20,70.0,65.3,62.0,70.0,65.2,62.0,100,100,94,29.68,29.56,5,2,10,0.20
2013-9-21,78.0,69.0,64.0,72.0,68.1,64.0,100,97,82,29.56,29.33,7,3,27,0.29
2013-9-22,78.0,66.1,57.0,65.0,60.1,-99.9,100,85,54,29.48,29.31,9,5,22,0.54
2013-9-23,75.0,61.9,53.0,61.0,55.1,51.0,100,81,51,29.66,29.48,5,3,15,0.01
2013-9-24,79.0,62.3,51.0,63.0,56.6,51.0,100,85,53,29.69,29.54,14,2,44,0.00
2013-9-25,75.0,61.5,50.0,64.0,57.8,50.0,100,90,59,29.55,29.47,4,2,9,0.00
2013-9-26,76.0,65.1,56.0,64.0,58.7,52.0,100,83,44,29.62,29.47,8,4,52,0.00
2013-9-27,73.0,61.2,51.0,61.0,55.5,51.0,100,84,55,29.77,29.62,8,4,17,0.00
2013-9-28,73.0,60.1,51.0,59.0,54.5,51.0,100,84,53,29.85,29.76,8,4,18,0.00
2013-9-29,77.0,60.0,50.0,59.0,51.8,-99.9,100,81,43,29.76,29.63,7,4,18,0.00
2013-9-30,77.0,60.7,50.0,61.0,54.8,50.0,100,84,46,29.69,29.59,4,2,31,0.00
2013-10-1,64.0,60.2,55.0,64.0,60.2,55.0,100,100,100,29.66,29.64,2,2,8,0.00
2013-10-2,85.0,67.7,55.0,65.0,59.0,55.0,100,79,39,29.72,29.64,6,2,30,0.00
2013-10-3,86.0,69.8,57.0,71.0,61.7,57.0,100,80,40,29.72,29.65,5,2,31,0.00
2013-10-4,90.0,72.0,58.0,70.0,63.8,58.0,100,81,42,29.72,29.65,5,2,54,0.00
2013-10-5,91.0,73.2,60.0,72.0,64.7,60.0,100,80,39,29.70,29.62,4,2,12,0.00
2013-10-6,85.0,71.9,59.0,73.0,67.0,59.0,100,86,58,29.66,29.53,7,4,17,0.00
2013-10-7,72.0,69.9,64.0,72.0,69.8,61.0,100,100,89,29.58,29.44,8,5,24,2.16
2013-10-8,64.0,59.5,56.0,61.0,50.7,46.0,89,73,64,29.79,29.58,10,7,33,0.01
2013-10-9,65.0,57.7,53.0,57.0,53.0,48.0,100,84,75,29.79,29.70,9,7,26,0.10
2013-10-10,60.0,56.1,52.0,60.0,56.1,52.0,100,100,100,29.70,29.54,8,6,20,1.23
2013-10-11,67.0,62.1,58.0,66.0,61.3,58.0,100,97,87,29.56,29.50,7,4,57,0.01
2013-10-12,68.0,63.1,59.0,68.0,63.0,59.0,100,99,95,29.67,29.55,6,4,63,0.01
2013-10-13,68.0,62.2,60.0,67.0,61.1,-99.9,100,99,95,29.79,29.67,8,5,20,0.04
2013-10-14,65.0,60.9,57.0,63.0,60.7,57.0,100,99,94,29.83,29.77,7,5,54,0.09
2013-10-15,75.0,61.8,51.0,63.0,57.1,51.0,100,87,58,29.80,29.65,7,4,37,0.03
2013-10-16,73.0,64.2,58.0,64.0,62.1,58.0,100,93,70,29.66,29.55,4,2,8,0.00
2013-10-17,74.0,65.6,58.0,68.0,63.2,58.0,100,93,72,29.57,29.44,7,3,14,0.00
2013-10-18,70.0,62.0,54.0,66.0,55.0,48.0,100,81,47,29.63,29.47,6,3,60,0.00
2013-10-19,70.0,60.2,55.0,65.0,59.4,55.0,100,97,85,29.57,29.41,4,2,30,0.00
2013-10-20,68.0,53.7,43.0,57.0,44.5,-99.9,100,78,39,29.70,29.49,6,3,30,0.01
2013-10-21,71.0,51.3,36.0,54.0,44.8,36.0,100,83,42,29.74,29.60,5,2,11,0.01
2013-10-22,67.0,56.9,49.0,62.0,55.3,49.0,100,95,77,29.60,29.40,4,2,10,0.00
2013-10-23,67.0,58.1,45.0,59.0,48.5,32.0,100,75,36,29.57,29.28,10,6,36,0.00
2013-10-24,58.0,45.8,33.0,41.0,35.4,31.0,100,71,39,29.75,29.57,8,4,22,0.00
2013-10-25,56.0,44.9,36.0,37.0,32.6,27.0,97,65,34,29.92,29.75,10,5,24,0.00
2013-10-26,60.0,43.4,29.0,39.0,31.7,29.0,100,69,35,29.93,29.65,75,7,76,0.00
2013-10-27,70.0,53.7,41.0,48.0,39.2,-99.9,100,64,33,29.70,29.62,7,4,15,0.00
2013-10-28,69.0,52.9,41.0,55.0,47.2,-99.9,100,87,50,29.84,29.70,4,2,9,0.00
2013-10-29,73.0,58.4,50.0,59.0,53.8,50.0,100,87,53,29.91,29.82,3,2,10,0.00
2013-10-30,76.0,58.7,49.0,61.0,55.3,49.0,100,90,56,29.87,29.74,8,2,44,0.00
2013-10-31,73.0,62.8,54.0,62.0,57.7,54.0,100,85,63,29.78,29.52,8,4,18,0.00
2013-11-1,71.0,67.2,61.0,69.0,66.0,61.0,100,96,82,29.52,29.26,10,7,43,0.51
2013-11-2,70.0,60.2,48.0,61.0,52.2,41.0,100,80,37,29.51,29.29,9,4,19,0.12
2013-11-3,65.0,49.2,38.0,45.0,38.3,-99.9,100,72,38,29.94,29.51,10,4,33,0.05
2013-11-4,55.0,43.7,35.0,38.0,33.3,30.0,100,69,39,30.12,29.94,8,4,45,0.00
2013-11-5,58.0,46.5,35.0,49.0,40.0,31.0,93,78,62,30.11,30.01,6,4,16,0.00
2013-11-6,73.0,56.6,45.0,57.0,51.1,45.0,100,85,52,30.01,29.70,6,3,13,0.00
2013-11-7,68.0,58.1,45.0,64.0,51.1,30.0,100,80,49,29.70,29.52,12,4,26,0.00
2013-11-8,57.0,44.2,33.0,32.0,27.7,22.0,86,56,28,29.89,29.68,9,5,21,0.00
2013-11-9,59.0,42.9,30.0,37.0,29.0,-99.9,99,66,31,29.94,29.76,8,3,18,0.00
2013-11-10,72.0,54.5,38.0,40.0,34.0,24.0,93,51,26,29.81,29.65,9,5,27,0.00
2013-11-11,63.0,46.5,32.0,35.0,28.7,23.0,92,54,28,29.92,29.72,6,3,20,0.00
2013-11-12,59.0,41.3,32.0,40.0,33.6,21.0,100,78,43,29.98,29.62,11,4,26,0.02
2013-11-13,46.0,33.7,26.0,21.0,17.7,15.0,82,54,30,30.09,29.98,10,4,21,0.02
2013-11-14,59.0,38.5,23.0,29.0,22.8,20.0,95,60,23,30.03,29.90,9,3,19,0.00
2013-11-15,60.0,44.9,28.0,45.0,35.0,23.0,92,71,42,29.93,29.79,5,2,11,0.00
2013-11-16,64.0,53.7,46.0,58.0,51.4,-99.9,100,95,79,29.85,29.79,4,2,11,0.01
2013-11-17,68.0,59.0,52.0,64.0,58.1,52.0,100,97,82,29.81,29.50,7,2,35,0.02
2013-11-18,76.0,65.7,54.0,68.0,52.6,27.0,100,68,33,29.55,29.40,9,5,23,0.07
2013-11-19,57.0,47.8,40.0,29.0,26.7,24.0,62,45,32,29.88,29.55,9,5,42,0.04
2013-11-20,52.0,43.1,35.0,36.0,28.6,24.0,84,57,42,30.01,29.88,9,5,21,0.00
2013-11-21,62.0,48.4,39.0,46.0,40.7,35.0,89,76,54,30.07,29.97,6,4,34,0.00
2013-11-22,71.0,57.5,46.0,62.0,53.5,45.0,100,87,71,29.97,29.68,9,3,34,0.00
2013-11-23,61.0,54.7,41.0,61.0,41.4,-99.9,100,66,35,29.74,29.63,8,5,20,0.00
2013-11-24,41.0,32.6,24.0,22.0,7.3,0.0,51,35,21,30.10,29.74,13,7,28,0.00
2013-11-25,42.0,27.6,17.0,17.0,8.8,3.0,77,48,23,30.14,29.95,6,2,12,0.00
2013-11-26,64.0,43.1,34.0,64.0,36.5,11.0,100,81,35,29.96,29.18,10,5,27,0.99
2013-11-27,46.0,38.9,29.0,46.0,34.2,13.0,100,85,50,29.71,29.10,12,7,32,1.28
2013-11-28,47.0,32.4,25.0,24.0,15.3,10.0,89,52,28,30.04,29.71,7,4,22,0.01
2013-11-29,52.0,35.1,24.0,26.0,21.8,19.0,99,63,30,30.20,30.03,7,3,18,0.00
2013-11-30,51.0,35.9,27.0,29.0,22.3,-99.9,90,61,41,30.20,29.95,7,4,14,0.00
2013-12-1,63.0,40.5,26.0,34.0,28.9,25.0,100,70,28,29.95,29.61,6,2,11,0.00
2013-12-2,64.0,43.8,33.0,41.0,36.7,31.0,100,80,40,29.61,29.41,5,2,10,0.00
2013-12-3,57.0,44.4,32.0,48.0,40.2,32.0,100,87,59,29.57,29.45,128,5,94,0.00
2013-12-4,63.0,55.2,47.0,57.0,53.0,47.0,100,93,78,29.67,29.55,128,5,95,0.00
2013-12-5,66.0,60.6,54.0,65.0,60.4,54.0,100,100,94,29.70,29.62,8,4,17,0.05
2013-12-6,77.0,69.5,64.0,66.0,63.3,61.0,100,82,60,29.66,29.56,15,8,34,0.02
2013-12-7,69.0,48.2,41.0,66.0,42.5,-99.9,100,83,65,30.02,29.59,8,6,26,0.20
2013-12-8,42.0,34.6,32.0,33.0,30.4,25.0,100,86,57,30.02,29.87,8,5,20,0.20
2013-12-9,44.0,37.9,32.0,44.0,37.9,32.0,100,100,100,29.87,29.65,4,3,11,0.29
2013-12-10,51.0,41.9,27.0,45.0,39.0,26.0,100,91,54,29.88,29.53,7,3,20,0.51
2013-12-11,50.0,35.0,24.0,29.0,24.1,19.0,100,71,30,30.01,29.86,6,3,48,0.02
2013-12-12,47.0,34.8,25.0,30.0,19.6,11.0,99,58,26,29.98,29.84,9,4,18,0.00
2013-12-13,54.0,34.9,21.0,29.0,20.3,16.0,91,62,22,29.95,29.83,7,3,18,0.00
2013-12-14,45.0,38.9,35.0,43.0,34.1,-99.9,100,87,51,29.87,29.38,7,3,18,0.81
2013-12-15,54.0,42.3,33.0,43.0,34.1,24.0,100,76,44,29.64,29.29,13,6,44,0.08
2013-12-16,59.0,40.2,28.0,34.0,30.0,26.0,100,71,35,29.74,29.64,6,3,16,0.01
2013-12-17,64.0,46.6,30.0,36.0,33.3,30.0,100,66,33,29.68,29.46,9,4,26,0.00
2013-12-18,51.0,39.5,28.0,25.0,18.2,12.0,78,44,22,29.85,29.62,8,5,24,0.00
2013-12-19,63.0,42.9,27.0,25.0,20.8,17.0,81,47,18,29.88,29.79,72,9,72,0.00
2013-12-20,68.0,53.2,42.0,52.0,40.9,24.0,82,64,42,29.81,29.70,11,5,72,0.00
2013-12-21,73.0,59.2,45.0,67.0,53.2,-99.9,100,84,62,29.73,29.62,30,6,62,0.00
2013-12-22,77.0,69.3,62.0,68.0,64.6,59.0,100,86,63,29.68,29.60,34,9,76,0.20
2013-12-23,65.0,59.6,46.0,65.0,58.5,35.0,100,96,66,29.73,29.59,9,5,24,1.55
2013-12-24,47.0,40.4,29.0,35.0,25.2,10.0,69,55,41,30.01,29.72,9,6,22,0.01
2013-12-25,43.0,29.9,22.0,16.0,9.6,7.0,73,44,24,30.11,29.97,6,3,16,0.00
2013-12-26,55.0,35.8,21.0,28.0,22.1,14.0,97,62,27,29.97,29.82,5,2,13,0.00
2013-12-27,56.0,37.7,26.0,25.0,19.9,17.0,86,53,22,30.03,29.93,4,2,11,0.00
2013-12-28,63.0,40.1,24.0,33.0,24.7,-99.9,99,63,22,29.98,29.74,5,2,11,0.00
2013-12-29,57.0,46.2,39.0,52.0,44.2,33.0,100,93,59,29.74,29.30,9,4,22,1.63
2013-12-30,54.0,44.0,35.0,42.0,38.1,31.0,100,81,57,29.71,29.50,7,3,17,0.01
2013-12-31,51.0,40.1,31.0,41.0,29.3,19.0,100,70,30,29.92,29.70,8,3,21,0.01
2014-1-1,50.0,37.7,30.0,30.0,26.0,21.0,93,66,33,29.98,29.73,6,2,12,0.00
2014-1-2,47.0,40.3,33.0,45.0,36.4,27.0,100,86,65,29.73,29.18,6,2,16,0.32